Satellite-Ground Cal/Val Site Overpasses Predictions

Prediction of Satellite NPP Overpassing Cal/Val Site: Antarctic Dome C

Ground Cal/Val Site Location: Latitude: -75.10, Longitude: 123.35; Satellite-Ground Site NADIR distance within 100 km.

Table of predicted overpasses for the next 14.0 days since TLE Epoch: 10/2/2021
Interval Starting Time Ending Time Minimum Distance Time Minimum Distance (km)
1 10/02/2021 14:49:29 10/02/2021 14:49:58 10/02/2021 14:49:43 10.77
2 10/04/2021 07:32:18 10/04/2021 07:32:48 10/04/2021 07:32:33 1.28
3 10/07/2021 14:55:47 10/07/2021 14:56:15 10/07/2021 14:56:01 25.69
4 10/08/2021 14:37:03 10/08/2021 14:37:20 10/08/2021 14:37:12 81.49
5 10/09/2021 07:38:37 10/09/2021 07:39:04 10/09/2021 07:38:51 37.06
6 10/10/2021 07:19:51 10/10/2021 07:20:11 10/10/2021 07:20:01 72.81
7 10/12/2021 15:02:07 10/12/2021 15:02:29 10/12/2021 15:02:18 62.71
8 10/13/2021 14:43:16 10/13/2021 14:43:42 10/13/2021 14:43:29 46.59
9 10/14/2021 07:44:57 10/14/2021 07:45:17 10/14/2021 07:45:07 72.17
